Flag for U.S.A. Weather past 2 weeks in Mason, Ohio, U.S.A.

Now
64 °F

Fog.


Feels Like: 64 °F
Forecast: 62 / 80 °F
Wind: No wind

Location: Butler County Regional Airport

Current Time: Jul 4, 2015 at 6:29:01 AM

Latest Report: Jul 4, 2015 at 5:53 AM


Visibility: 6 mi

Pressure: 29.93 "Hg

Humidity: 97%

Dew point: 63 °F

Location of MasonLocation

Historic Weather in Mason — Graph

°F

Mason temperature yesterday

Maximum temperature yesterday: 75 °F (at 1:53 PM)
Minimum temperature yesterday: 65 °F (at 10:53 PM)
Average temperature yesterday: 69 °F

Past Weeks' High & Low Weather Summary

 TemperatureHumidityPressure
High88 °F (Jun 22, 3:53 PM)100% (Jun 27, 6:02 AM)30.18 "Hg (Jun 27, 6:02 AM)
Low57 °F (Jun 28, 6:53 AM)42% (Jun 24, 1:53 PM)29.72 "Hg (Jun 27, 5:53 AM)
Average72 °F81%29.93 "Hg
* Reported Jun 19 4:53 AM — Jul 4 4:53 AM, Mason, Weather by CustomWeather, © 2015

Note: Actual official high and low records may vary slightly from our data, if they occured in-between our weather recording intervals... More about our weather records

Advertising

Mason weather history for previous 24 hours

 ConditionsComfort  
Time TempWeatherWind HumidityBarometerVisibility
4:53 AM
Sat, Jul 4
66 °FFog.No wind90%29.92 "Hg6 mi
3:53 AM65 °FFog.No wind97%29.92 "Hg4 mi
2:53 AM65 °FFog.No wind97%29.92 "Hg4 mi
1:53 AM66 °FFog.5 mph96%29.91 "Hg3 mi
12:53 AM66 °FFog.No wind96%29.91 "Hg3 mi
11:53 PM
Fri, Jul 3
66 °FFog.No wind93%29.90 "Hg5 mi
10:53 PM65 °FFog.No wind97%29.90 "Hg6 mi
9:53 PM67 °FScattered clouds.3 mph90%29.88 "Hg7 mi
8:53 PM69 °FPassing clouds.5 mph84%29.88 "Hg8 mi
7:53 PM71 °FLight rain. Overcast.5 mph81%29.87 "Hg9 mi
6:53 PM69 °FLight rain. Fog.7 mph90%29.87 "Hg6 mi
5:53 PM72 °FOvercast.7 mph73%29.87 "Hg9 mi
4:53 PM72 °FOvercast.10 mph73%29.88 "Hg9 mi
4:00 PM74 °FMostly cloudy.8 mph76%29.89 "Hg10 mi
3:01 PM74 °FOvercast.10 mph74%29.89 "Hg10 mi
1:53 PM75 °FOvercast.7 mph71%29.89 "Hg10 mi
12:53 PM72 °FOvercast.5 mph76%29.90 "Hg7 mi
11:53 AM72 °FOvercast.8 mph73%29.90 "Hg10 mi
10:53 AM71 °FOvercast.8 mph76%29.89 "Hg10 mi
9:53 AM69 °FOvercast.6 mph79%29.90 "Hg10 mi
8:53 AM68 °FMostly cloudy.8 mph78%29.90 "Hg10 mi
7:53 AM67 °FMostly cloudy.6 mph79%29.90 "Hg10 mi
6:53 AM66 °FMostly cloudy.5 mph81%29.90 "Hg10 mi
Weather by CustomWeather, © 2015

See weather overviewHow to use our weather pages